Terminal Aerodrome Forecast
Issued by NWS

Home | Current Version | Previous Version | Text Only | Print | Product List | Glossary On
Versions: 1 2 3 4 5 6 7 8 9 10 11 12 13 14 15 16 17 18 19 20 21 22 23 24 25
000
FTUS43 KIND 031135
TAFHUF
TAF
KHUF 031135Z 0312/0412 33005KT 6SM BR BKN010 OVC020
     FM031400 34006KT P6SM BKN020 OVC040
     FM031630 32005KT P6SM BKN040
     FM032100 24005KT P6SM BKN060
     FM041100 22008KT 5SM -SHRA OVC025=

USA.gov is the U.S. government's official web portal to all federal, state and local government web resources and services.